Location: Chevoux
(46.3801°N, 4.9476°E)
Time: 12:21:18
(UTC+00:00)

Vanguard 2 - Visible Passes

Search period start: 13 May 2021 00:00
Search period end: 23 May 2021 00:00
Orbit: 552 x 2938 km, 32.9° (Epoch: 12 May)

Date Brightness Start Highest point End Pass type
(mag) Time Alt. Az. Time Alt. Az. Time Alt. Az.
15 May 10.6 02:29:23 10° SE 02:31:00 11° SE 02:32:45 10° ESE visible
16 May 10.4 02:43:34 10° S 02:47:53 15° SE 02:53:16 10° ESE visible
17 May 10.2 02:59:32 10° S 03:04:53 20° SE 03:12:04 10° ESE visible
18 May 10.1 03:16:04 10° SSW 03:21:58 24° SSE 03:30:22 10° ESE visible
20 May 10.1 01:47:11 10° SSE 01:49:20 12° SE 01:51:46 10° ESE visible
21 May 9.8 02:03:28 12° S 02:06:23 16° SE 02:10:59 10° ESE visible
22 May 9.6 02:20:07 13° S 02:23:31 20° SSE 02:29:21 10° ESE visible
